TimeCDT,TemperatureF,Dew PointF,Humidity,Sea Level PressureIn,VisibilityMPH,Wind Direction,Wind SpeedMPH,Gust SpeedMPH,PrecipitationIn,Events,Conditions,WindDirDegrees,DateUTC
12:13 AM,19.4,17.6,93,30.28,10.0,WSW,3.5,-,N/A,,Clear,250,2013-04-02 05:13:00
12:34 AM,19.4,17.6,93,30.28,10.0,Calm,Calm,-,N/A,,Clear,0,2013-04-02 05:34:00
12:54 AM,19.4,17.6,93,30.28,10.0,Calm,Calm,-,N/A,,Clear,0,2013-04-02 05:54:00
1:13 AM,19.4,17.6,93,30.28,10.0,Calm,Calm,-,N/A,,Clear,0,2013-04-02 06:13:00
1:34 AM,17.6,15.8,93,30.28,10.0,Calm,Calm,-,N/A,,Clear,0,2013-04-02 06:34:00
1:53 AM,17.6,15.8,93,30.28,10.0,Calm,Calm,-,N/A,,Clear,0,2013-04-02 06:53:00
2:13 AM,17.6,17.6,100,30.28,10.0,Calm,Calm,-,N/A,,Clear,0,2013-04-02 07:13:00
2:33 AM,17.6,15.8,93,30.28,10.0,Calm,Calm,-,N/A,,Clear,0,2013-04-02 07:33:00
2:53 AM,17.6,15.8,93,30.27,7.0,Calm,Calm,-,N/A,,Clear,0,2013-04-02 07:53:00
3:14 AM,15.8,14.0,93,30.27,1.2,Calm,Calm,-,N/A,,Clear,0,2013-04-02 08:14:00
3:33 AM,17.6,15.8,93,30.28,10.0,SW,3.5,-,N/A,,Clear,230,2013-04-02 08:33:00
3:54 AM,17.6,15.8,93,30.28,10.0,West,3.5,-,N/A,,Clear,260,2013-04-02 08:54:00
4:13 AM,17.6,17.6,100,30.27,10.0,Calm,Calm,-,N/A,,Clear,0,2013-04-02 09:13:00
4:33 AM,17.6,15.8,93,30.28,5.0,Calm,Calm,-,N/A,,Clear,0,2013-04-02 09:33:00
4:53 AM,17.6,17.6,100,30.28,7.0,Calm,Calm,-,N/A,,Clear,0,2013-04-02 09:53:00
5:14 AM,17.6,15.8,93,30.28,2.0,Calm,Calm,-,N/A,,Clear,0,2013-04-02 10:14:00
5:33 AM,17.6,15.8,93,30.29,4.0,Calm,Calm,-,N/A,,Clear,0,2013-04-02 10:33:00
5:54 AM,17.6,15.8,93,30.29,0.8,Calm,Calm,-,N/A,,Mist,0,2013-04-02 10:54:00
6:14 AM,15.8,14.0,93,30.29,0.5,Calm,Calm,-,N/A,Fog,Light Freezing Fog,0,2013-04-02 11:14:00
6:33 AM,17.6,15.8,93,30.30,0.8,Calm,Calm,-,N/A,,Mist,0,2013-04-02 11:33:00
6:53 AM,15.8,14.0,93,30.30,1.2,Calm,Calm,-,N/A,,Clear,0,2013-04-02 11:53:00
7:14 AM,15.8,12.2,86,30.31,7.0,Calm,Calm,-,N/A,,Clear,0,2013-04-02 12:14:00
7:33 AM,17.6,15.8,93,30.32,10.0,Calm,Calm,-,N/A,,Clear,0,2013-04-02 12:33:00
7:53 AM,17.6,15.8,93,30.32,10.0,Calm,Calm,-,N/A,,Clear,0,2013-04-02 12:53:00
8:13 AM,19.4,17.6,93,30.33,10.0,Calm,Calm,-,N/A,,Clear,0,2013-04-02 13:13:00
8:33 AM,21.2,19.4,93,30.33,10.0,Calm,Calm,-,N/A,,Clear,0,2013-04-02 13:33:00
8:53 AM,21.2,21.2,100,30.34,10.0,Calm,Calm,-,N/A,,Clear,0,2013-04-02 13:53:00
9:34 AM,24.8,23.0,93,30.34,10.0,Calm,Calm,-,N/A,,Clear,0,2013-04-02 14:34:00
9:54 AM,26.6,23.0,86,30.34,10.0,Calm,Calm,-,N/A,,Clear,0,2013-04-02 14:54:00
10:14 AM,26.6,21.2,80,30.35,10.0,Calm,Calm,-,N/A,,Clear,0,2013-04-02 15:14:00
10:33 AM,28.4,19.4,69,30.34,10.0,North,4.6,-,N/A,,Clear,360,2013-04-02 15:33:00
10:53 AM,30.2,17.6,60,30.34,10.0,North,6.9,-,N/A,,Clear,360,2013-04-02 15:53:00
11:13 AM,30.2,19.4,64,30.34,10.0,North,4.6,-,N/A,,Scattered Clouds,10,2013-04-02 16:13:00
11:34 AM,30.2,19.4,64,30.34,10.0,NNE,4.6,-,N/A,,Mostly Cloudy,20,2013-04-02 16:34:00
11:54 AM,30.2,19.4,64,30.34,10.0,North,4.6,-,N/A,,Overcast,350,2013-04-02 16:54:00
12:13 PM,32.0,19.4,60,30.34,10.0,NNW,4.6,-,N/A,,Overcast,330,2013-04-02 17:13:00
12:33 PM,32.0,19.4,60,30.35,10.0,NNE,5.8,-,N/A,,Mostly Cloudy,20,2013-04-02 17:33:00
12:53 PM,33.8,17.6,52,30.35,10.0,North,5.8,-,N/A,,Clear,10,2013-04-02 17:53:00
1:15 PM,33.8,17.6,52,30.35,10.0,North,9.2,-,N/A,,Clear,350,2013-04-02 18:15:00
1:33 PM,33.8,15.8,48,30.35,10.0,North,6.9,-,N/A,,Clear,360,2013-04-02 18:33:00
1:53 PM,33.8,14.0,44,30.35,10.0,NNW,5.8,-,N/A,,Clear,340,2013-04-02 18:53:00
2:14 PM,33.8,15.8,48,30.34,10.0,NNE,4.6,-,N/A,,Clear,20,2013-04-02 19:14:00
2:33 PM,33.8,15.8,48,30.34,10.0,NNE,5.8,-,N/A,,Clear,20,2013-04-02 19:33:00
2:53 PM,33.8,14.0,44,30.34,10.0,North,8.1,-,N/A,,Clear,360,2013-04-02 19:53:00
3:13 PM,33.8,15.8,48,30.34,10.0,North,9.2,-,N/A,,Clear,350,2013-04-02 20:13:00
3:33 PM,33.8,15.8,48,30.34,10.0,North,6.9,-,N/A,,Clear,10,2013-04-02 20:33:00
3:53 PM,33.8,17.6,52,30.34,10.0,North,8.1,-,N/A,,Clear,350,2013-04-02 20:53:00
4:13 PM,35.6,19.4,52,30.33,10.0,North,8.1,-,N/A,,Clear,360,2013-04-02 21:13:00
4:33 PM,35.6,19.4,52,30.33,10.0,North,8.1,-,N/A,,Clear,350,2013-04-02 21:33:00
4:53 PM,33.8,19.4,56,30.33,10.0,North,6.9,-,N/A,,Clear,360,2013-04-02 21:53:00
5:14 PM,35.6,17.6,48,30.33,10.0,North,6.9,-,N/A,,Clear,10,2013-04-02 22:14:00
5:33 PM,35.6,17.6,48,30.33,10.0,NE,6.9,-,N/A,,Clear,40,2013-04-02 22:33:00
5:53 PM,35.6,17.6,48,30.34,10.0,NNE,5.8,-,N/A,,Clear,30,2013-04-02 22:53:00
6:13 PM,33.8,17.6,52,30.34,10.0,NE,5.8,-,N/A,,Clear,40,2013-04-02 23:13:00
6:33 PM,33.8,19.4,56,30.34,10.0,NE,5.8,-,N/A,,Clear,40,2013-04-02 23:33:00
6:53 PM,33.8,19.4,56,30.34,10.0,ENE,4.6,-,N/A,,Clear,60,2013-04-02 23:53:00
7:14 PM,30.2,19.4,64,30.34,10.0,NE,3.5,-,N/A,,Clear,50,2013-04-03 00:14:00
7:34 PM,30.2,21.2,69,30.34,10.0,NE,3.5,-,N/A,,Clear,50,2013-04-03 00:34:00
7:53 PM,30.2,19.4,64,30.34,10.0,NE,5.8,-,N/A,,Clear,50,2013-04-03 00:53:00
8:14 PM,28.4,21.2,74,30.34,10.0,NE,6.9,-,N/A,,Clear,40,2013-04-03 01:14:00
8:34 PM,28.4,21.2,74,30.34,10.0,NE,4.6,-,N/A,,Clear,40,2013-04-03 01:34:00
8:53 PM,26.6,21.2,80,30.34,10.0,NE,3.5,-,N/A,,Clear,40,2013-04-03 01:53:00
9:14 PM,26.6,21.2,80,30.34,10.0,NE,3.5,-,N/A,,Clear,40,2013-04-03 02:14:00
9:33 PM,26.6,21.2,80,30.34,10.0,Calm,Calm,-,N/A,,Clear,0,2013-04-03 02:33:00
9:53 PM,26.6,21.2,80,30.35,10.0,Calm,Calm,-,N/A,,Clear,0,2013-04-03 02:53:00
10:13 PM,24.8,21.2,86,30.34,10.0,Calm,Calm,-,N/A,,Clear,0,2013-04-03 03:13:00
10:33 PM,26.6,21.2,80,30.34,10.0,Calm,Calm,-,N/A,,Clear,0,2013-04-03 03:33:00
10:53 PM,24.8,21.2,86,30.34,10.0,Calm,Calm,-,N/A,,Clear,0,2013-04-03 03:53:00
11:13 PM,24.8,21.2,86,30.34,10.0,Calm,Calm,-,N/A,,Clear,0,2013-04-03 04:13:00
11:34 PM,24.8,21.2,86,30.35,10.0,Calm,Calm,-,N/A,,Clear,0,2013-04-03 04:34:00
11:53 PM,24.8,21.2,86,30.34,10.0,ENE,3.5,-,N/A,,Clear,60,2013-04-03 04:53:00